Regional Weather Roundup
Issued by NWS Charleston, SC

Current Version | Previous Version | Graphics & Text | Print | Product List | Glossary On
Versions: 1 2 3 4 5 6 7 8 9 10 11 12 13 14 15 16 17 18 19 20 21 22 23 24 25 26 27 28 29 30 31 32 33 34 35 36 37 38 39 40 41 42 43 44 45 46 47 48 49 50
000 ASUS42 KCHS 291127 RWRCHS REGIONAL WEATHER ROUNDUP NATIONAL WEATHER SERVICE CHARLESTON SC 700 AM EDT FRI MAY 29 2015 NOTE: "FAIR" INDICATES FEW OR NO CLOUDS BELOW 12,000 FEET WITH NO SIGNIFICANT WEATHER AND/OR OBSTRUCTIONS TO VISIBILITY. NOT ALL STATIONS ARE QUALITY CONTROLLED BY THE NATIONAL WEATHER SERVICE. USE DATA WITH CAUTION...ESPECIALLY DEWPOINT OBSERVATIONS. SCZ027-030-031-034>040-042>050-291200- ...SOUTHEAST SOUTH CAROLINA... CITY SKY/WX TMP DP RH WIND PRES REMARKS N CHARLESTON PTCLDY 65 62 90 N3 30.18R WATERFRONT PAR N/A 71 68 90 N6 30.14R MOUNT PLEASANT FAIR 64 64 100 CALM 30.18R FOG JOHNS ISLAND SUNNY 70 66 88 CALM 30.18R PINOPOLIS N/A 70 66 88 CALM 30.08S MONCKS CORNER FAIR 64 63 94 CALM 30.19R SUMMERVILLE FAIR 63 63 100 CALM 30.19R BEAUFORT MCAS PTCLDY 67 65 93 N3 30.16R BEAUFORT ARPT FAIR 70 68 94 CALM 30.16R HILTON HEAD IS CLEAR 70 61 73 CALM 30.17R WALTERBORO SUNNY 61 59 94 CALM 30.19R ALLENDALE FAIR 66 63 88 CALM 30.18R ...SOUTHERN MIDLANDS AND PEE DEE... CITY SKY/WX TMP DP RH WIND PRES REMARKS GEORGETOWN NOT AVBL KINGSTREE NOT AVBL ORANGEBURG CLEAR 64 61 90 NE3 30.19R BARNWELL FAIR 64 64 100 CALM 30.21R AIKEN FAIR 64 61 88 SE3 30.24R MANNING FAIR 61 46 59 CALM 30.20S COLUMBIA MOCLDY 68 62 81 NE3 30.20R SUMTER PTCLDY 63 61 93 N3 30.19R FLORENCE PTCLDY 65 63 93 CALM 30.21R MYRTLE BEACH CLEAR 66 63 88 N7 30.21R N MYRTLE BEACH CLEAR 65 63 93 NE5 30.20R $$ GAZ063-065-086>088-099>101-113>116-118-119-134>141-150-291200- ...SOUTHEAST GEORGIA... CITY SKY/WX TMP DP RH WIND PRES REMARKS SAVANNAH ARPT PTCLDY 68 63 84 NE3 30.16R HUNTER AAF CLEAR 67 66 96 CALM 30.13R FORT STEWART CLEAR 64 62 93 N1 30.13R STATESBORO CLEAR 64 32 30 CALM 30.18R SYLVANIA SUNNY 65 64 98 CALM 30.19R CLAXTON FAIR 61 61 100 CALM 30.17R ...CSRA...CENTRAL AND FAR SOUTHEAST GEORGIA... CITY SKY/WX TMP DP RH WIND PRES REMARKS THOMSON PTCLDY 68 67 98 CALM 30.24R AUGUSTA-BUSH CLEAR 63 62 97 CALM 30.19R AUGUSTA-DANIEL CLEAR 69 62 78 E3 30.20R SWAINSBORO FAIR N/A N/A N/A CALM 30.19R VIDALIA CLEAR 64 63 94 CALM 30.18R EASTMAN FAIR 63 63 100 CALM 30.20R HAZLEHURST FAIR 67 66 97 N5 30.17R ALMA CLEAR 64 62 93 N3 30.15R WAYCROSS CLEAR 64 64 100 CALM 30.15R JESUP FAIR 66 64 94 CALM 30.16R BAXLEY FAIR 64 63 94 CALM 30.16R BRUNSWICK N/A 64 63 94 CALM 30.15R SAINT SIMONS NOT AVBL $$ SCZ027-028-034-036>038-045-046-048>050-GAZ119-141-291200- ...LAKE AND SUPPLEMENTAL COASTAL OBSERVATIONS... STATION/POSITION TIME TEMP WIND PRES WAVE SWELL AIR SEA DIR/SP/G HT/PER HT/PER/DIR (UTC) (F) (DEG/KT/KT) (MB) (FT/S) (FT/S/D) UPR LAKE MARION NOT AVBL WINYAH BAY 1000 65 320/ 2 1020.0 LAKE MURRAY 1000 70 130/ 4/ 7 1021.3R ACE BASIN NERRS NOT AVBL FORT PULASKI 1100 75 79 110/ 4/ 6 1021.5R SAPELO ISLAND 1100 74 90/ 4 1021.0R $$ ANZ835-935-AMZ111-154-330-350-352-354-370-450-454-472-291200- ...C-MAN AND BUOY OBSERVATIONS... STATION/POSITION TIME TEMP WIND PRES WAVE SWELL AIR SEA DIR/SP/G HT/PER HT/PER/DIR (UTC) (F) (DEG/KT/KT) (MB) (FT/S) (FT/S/D) BUOY 41004 1050 77 78 60/ 8/ 12 1021.0R 4/ 8 3/ 8 BUOY 41008 1050 76 78 100/ 10/ 14 1020.4R 3/ 8 3/110/ 8 FOLLY BEACH CMAN 1100 75 80/ 6/ 7 1021.7R CAPERS NEARSHORE 1008 75 90/ 8/ 12 1021.3R FRIPP NEARSHORE 1000 75 80/ 8/ 10 1020.6 STATION/POSITION TIME TEMP WIND PRES WAVE SWELL AIR SEA DIR/SP/G HT/PER HT/PER/DIR (UTC) (F) (DEG/KT/KT) (MB) (FT/S) (FT/S/D) 5E ST. MARYS GA 1021 79 N/A 3/ 8 FRYING PAN BUOY 1050 76 76 50/ 12/ 12 1022.4R 4/ 9 3/120/ 9 BUOY 41025 1050 76 76 40/ 4/ 8 1023.5R 4/ 9 3/ 90/ 9 CAPE LOOKOUT NC 1100 72 20/ 5/ 6 1022.9R BUOY 41002 1050 75 74 70/ 14/ 16 1021.1R 5/ 7 3/ 90/ 7 BUOY 41010 1020 77 81 60/ 12/ 14 1018.6R ST AUGUSTINE FL 1100 76 78 90/ 11/ 13 1020.3R $$

USA.gov is the U.S. government's official web portal to all federal, state and local government web resources and services.